EN

Hourly Weather Barranca de Upia

Today, 26 January, Tuesday

Time Temperature Precipitation Wind Pressure Humidity
00:00 +26°C° 0 mm 1 mps 739 mmHg 71%
01:00 +26°C° 0 mm 1 mps 738 mmHg 76%
02:00 +26°C° 0 mm 1 mps 738 mmHg 75%
03:00 +26°C° 0 mm 1 mps 738 mmHg 75%
04:00 +25°C° 0 mm 1 mps 738 mmHg 74%
05:00 +26°C° 0 mm 1 mps 738 mmHg 73%
06:00 +26°C° 0 mm 1 mps 739 mmHg 72%
07:00 +26°C° 0 mm 1 mps 739 mmHg 70%
08:00 +29°C° 0 mm 2 mps 739 mmHg 61%
09:00 +33°C° 0 mm 3 mps 739 mmHg 51%
10:00 +35°C° 0 mm 4 mps 740 mmHg 41%
11:00 +36°C° 0 mm 4 mps 739 mmHg 39%
12:00 +37°C° 0 mm 4 mps 738 mmHg 36%
13:00 +38°C° 0 mm 4 mps 738 mmHg 34%
14:00 +37°C° 0 mm 4 mps 737 mmHg 36%
15:00 +37°C° 0 mm 4 mps 737 mmHg 37%
16:00 +36°C° 0 mm 3 mps 736 mmHg 39%
17:00 +34°C° 0 mm 3 mps 737 mmHg 44%
18:00 +32°C° 0 mm 2 mps 737 mmHg 49%
19:00 +30°C° 0 mm 1 mps 738 mmHg 53%
20:00 +29°C° 0 mm 1 mps 738 mmHg 55%
21:00 +28°C° 0 mm 1 mps 739 mmHg 58%
22:00 +28°C° 0 mm 1 mps 739 mmHg 60%
23:00 +27°C° 0 mm 1 mps 739 mmHg 62%

Tomorrow, 27 January, Wednesday

Time Temperature Precipitation Wind Pressure Humidity
00:00 +27°C° 0 mm 1 mps 739 mmHg 64%
01:00 +26°C° 0 mm 1 mps 738 mmHg 66%
02:00 +26°C° 0 mm 1 mps 738 mmHg 67%
03:00 +26°C° 0 mm 1 mps 738 mmHg 68%
04:00 +25°C° 0 mm 1 mps 738 mmHg 69%
05:00 +26°C° 0 mm 1 mps 739 mmHg 68%
06:00 +26°C° 0 mm 1 mps 739 mmHg 67%
07:00 +26°C° 0 mm 1 mps 740 mmHg 66%
08:00 +29°C° 0 mm 2 mps 740 mmHg 56%
09:00 +33°C° 0 mm 3 mps 740 mmHg 47%
10:00 +35°C° 0 mm 4 mps 740 mmHg 37%
11:00 +36°C° 0 mm 4 mps 739 mmHg 35%
12:00 +37°C° 0 mm 4 mps 738 mmHg 33%
13:00 +38°C° 0 mm 4 mps 738 mmHg 31%
14:00 +38°C° 0 mm 4 mps 737 mmHg 31%
15:00 +38°C° 0 mm 4 mps 737 mmHg 32%
16:00 +38°C° 0 mm 4 mps 736 mmHg 32%
17:00 +36°C° 0 mm 3 mps 736 mmHg 38%
18:00 +34°C° 0 mm 2 mps 737 mmHg 43%
19:00 +31°C° 0 mm 2 mps 737 mmHg 48%
20:00 +30°C° 0 mm 1 mps 738 mmHg 51%
21:00 +29°C° 0 mm 1 mps 738 mmHg 54%
22:00 +28°C° 0 mm 1 mps 739 mmHg 58%
23:00 +27°C° 0 mm 1 mps 739 mmHg 59%

Day after tomorrow, 28 January, Thursday

Time Temperature Precipitation Wind Pressure Humidity
00:00 +27°C° 0 mm 1 mps 738 mmHg 61%
01:00 +26°C° 0 mm 1 mps 738 mmHg 63%
02:00 +26°C° 0 mm 1 mps 738 mmHg 64%
03:00 +26°C° 0 mm 1 mps 738 mmHg 65%
04:00 +25°C° 0 mm 1 mps 738 mmHg 66%
05:00 +26°C° 0 mm 1 mps 738 mmHg 65%
06:00 +26°C° 0 mm 1 mps 739 mmHg 64%
07:00 +26°C° 0 mm 1 mps 739 mmHg 62%
08:00 +29°C° 0 mm 2 mps 739 mmHg 54%
09:00 +33°C° 0 mm 3 mps 739 mmHg 45%
10:00 +36°C° 0 mm 4 mps 740 mmHg 37%
11:00 +36°C° 0 mm 4 mps 739 mmHg 35%
12:00 +37°C° 0 mm 4 mps 738 mmHg 34%
13:00 +38°C° 0 mm 4 mps 737 mmHg 33%
14:00 +38°C° 0 mm 4 mps 736 mmHg 33%
15:00 +38°C° 0 mm 3 mps 736 mmHg 34%
16:00 +37°C° 0 mm 3 mps 735 mmHg 34%
17:00 +36°C° 0 mm 3 mps 736 mmHg 38%
18:00 +34°C° 0 mm 2 mps 736 mmHg 42%
19:00 +31°C° 0 mm 2 mps 737 mmHg 46%
20:00 +30°C° 0 mm 2 mps 737 mmHg 49%
21:00 +29°C° 0 mm 1 mps 738 mmHg 52%
22:00 +28°C° 0 mm 1 mps 738 mmHg 55%
23:00 +28°C° 0 mm 1 mps 738 mmHg 57%

29 January, Friday

Time Temperature Precipitation Wind Pressure Humidity
00:00 +27°C° 0 mm 1 mps 738 mmHg 59%
01:00 +27°C° 0 mm 1 mps 738 mmHg 60%
02:00 +26°C° 0 mm 1 mps 737 mmHg 62%
03:00 +26°C° 0 mm 1 mps 737 mmHg 64%
04:00 +25°C° 0 mm 1 mps 737 mmHg 66%
05:00 +26°C° 0 mm 1 mps 737 mmHg 65%
06:00 +26°C° 0 mm 1 mps 738 mmHg 64%
07:00 +27°C° 0 mm 1 mps 738 mmHg 63%
08:00 +29°C° 0 mm 2 mps 739 mmHg 54%
09:00 +31°C° 0 mm 3 mps 739 mmHg 46%
10:00 +35°C° 0 mm 4 mps 739 mmHg 37%
11:00 +36°C° 0 mm 4 mps 738 mmHg 35%
12:00 +37°C° 0 mm 3 mps 738 mmHg 32%
13:00 +39°C° 0 mm 3 mps 737 mmHg 30%
14:00 +38°C° 0 mm 3 mps 736 mmHg 30%
15:00 +38°C° 0 mm 3 mps 736 mmHg 31%
16:00 +38°C° 0 mm 3 mps 735 mmHg 31%
17:00 +36°C° 0 mm 3 mps 735 mmHg 36%
18:00 +34°C° 0 mm 2 mps 735 mmHg 41%
19:00 +31°C° 0 mm 2 mps 736 mmHg 45%
20:00 +30°C° 0 mm 2 mps 736 mmHg 47%
21:00 +29°C° 0 mm 1 mps 737 mmHg 50%
22:00 +28°C° 0 mm 1 mps 738 mmHg 52%
23:00 +28°C° 0 mm 1 mps 738 mmHg 54%

30 January, Saturday

Time Temperature Precipitation Wind Pressure Humidity
00:00 +27°C° 0 mm 1 mps 738 mmHg 56%
01:00 +27°C° 0 mm 1 mps 737 mmHg 59%
02:00 +26°C° 0 mm 1 mps 737 mmHg 60%
03:00 +26°C° 0 mm 1 mps 737 mmHg 62%
04:00 +25°C° 0 mm 1 mps 737 mmHg 63%
05:00 +26°C° 0 mm 1 mps 738 mmHg 63%
06:00 +26°C° 0 mm 1 mps 738 mmHg 62%
07:00 +26°C° 0 mm 1 mps 739 mmHg 62%
08:00 +29°C° 0 mm 2 mps 739 mmHg 52%
09:00 +33°C° 0 mm 3 mps 739 mmHg 43%
10:00 +36°C° 0 mm 4 mps 740 mmHg 33%
11:00 +37°C° 0 mm 4 mps 739 mmHg 30%
12:00 +38°C° 0 mm 4 mps 738 mmHg 27%
13:00 +40°C° 0 mm 4 mps 738 mmHg 24%
14:00 +40°C° 0 mm 4 mps 737 mmHg 24%
15:00 +38°C° 0 mm 4 mps 736 mmHg 24%
16:00 +38°C° 0 mm 4 mps 736 mmHg 23%
17:00 +36°C° 0 mm 3 mps 736 mmHg 29%
18:00 +32°C° 0 mm 2 mps 737 mmHg 34%
19:00 +30°C° 0 mm 2 mps 737 mmHg 40%
20:00 +29°C° 0 mm 2 mps 738 mmHg 42%
21:00 +28°C° 0 mm 1 mps 738 mmHg 45%
22:00 +27°C° 0 mm 1 mps 739 mmHg 48%
23:00 +26°C° 0 mm 1 mps 739 mmHg 49%

31 January, Sunday

Time Temperature Precipitation Wind Pressure Humidity
00:00 +26°C° 0 mm 1 mps 739 mmHg 51%
01:00 +26°C° 0 mm 1 mps 739 mmHg 52%
02:00 +25°C° 0 mm 1 mps 739 mmHg 53%
03:00 +25°C° 0 mm 1 mps 739 mmHg 54%
04:00 +25°C° 0 mm 1 mps 739 mmHg 54%
05:00 +25°C° 0 mm 1 mps 739 mmHg 54%
06:00 +25°C° 0 mm 1 mps 740 mmHg 53%
07:00 +26°C° 0 mm 1 mps 740 mmHg 52%
08:00 +29°C° 0 mm 2 mps 740 mmHg 44%
09:00 +32°C° 0 mm 2 mps 740 mmHg 36%
10:00 +37°C° 0 mm 3 mps 740 mmHg 28%
11:00 +38°C° 0 mm 3 mps 739 mmHg 27%
12:00 +38°C° 0 mm 4 mps 739 mmHg 25%
13:00 +40°C° 0 mm 4 mps 738 mmHg 24%
14:00 +40°C° 0 mm 4 mps 737 mmHg 24%
15:00 +40°C° 0 mm 4 mps 736 mmHg 25%
16:00 +40°C° 0 mm 4 mps 735 mmHg 26%
17:00 +36°C° 0 mm 3 mps 736 mmHg 31%
18:00 +34°C° 0 mm 2 mps 736 mmHg 37%
19:00 +31°C° 0 mm 2 mps 737 mmHg 42%
20:00 +30°C° 0 mm 1 mps 738 mmHg 45%
21:00 +29°C° 0 mm 1 mps 738 mmHg 48%
22:00 +28°C° 0 mm 1 mps 739 mmHg 51%
23:00 +28°C° 0 mm 1 mps 739 mmHg 52%
Show more

We Need Your Consent

Meteoprog and our Service Providers may store and access personal data such as cookies, device identifiers or other similar technologies on your device and process such data to personalise content and ads, as well as provide social media features and to analyse the traffic.

  • Store and/or access information on your device

    Cookies, device identifiers or other information can be stored or accessed on your device for the purposes indicated above.

  • Personalised ads and content, ad and content measurement, audience insights, and products development

    Ads and content can be personalised based on a profile. More data can be added to better personalise ads and content. Ad and content performance can be measured. Insights about the audience who saw the ads and content can be derived. Such data can be used to develop or improve user’s experience, systems and software.

By clicking ‘I Agree’ you will allow the use of indicated cookies, device identifiers, web beacons or other similar technologies. Your settings can be changed in the browser on your device.

For certain purposes, legitimate interests may be relied on, rather than consent. You can read more about this in our Privacy and Cookie Policy.